Regional Weather Roundup
Issued by NWS

Home | Current Version | Previous Version | Graphics & Text | Print | Product List | Glossary On
Versions: 1 2 3 4 5 6 7 8 9 10 11 12 13 14 15 16 17 18 19 20 21 22 23 24 25 26 27 28 29 30 31 32 33 34 35 36 37 38 39 40 41 42 43 44 45 46 47 48 49 50
000
ASUS45 KPSR 221610
RWRAZ

ARIZONA HOURLY REGIONAL WEATHER ROUNDUP
NATIONAL WEATHER SERVICE PHOENIX AZ
900 AM MST FRI MAY 22 2015

NOTE: FAIR INDICATES FEW OR NO CLOUDS BELOW 12,000 FEET WITH NO
SIGNIFICANT WEATHER AND/OR OBSTRUCTIONS TO VISIBILITY.

AZZ001>003-036-221700-
NORTHWEST ARIZONA

CITY           SKY/WX    TMP DP  RH WIND       PRES   REMARKS
BULLHEAD CITY  PTSUNNY   68  41  37 S13       29.87R
KINGMAN        CLOUDY    63  29  27 SW13      29.91R
$$

AZZ004>008-015-016-018-221700-
NORTH CENTRAL ARIZONA

CITY           SKY/WX    TMP DP  RH WIND       PRES   REMARKS
GRAND CANYON   PTSUNNY   52  35  52 S8        30.02S
WILLIAMS       CLOUDY    48  36  61 SE9G16    30.09R
PRESCOTT       PTSUNNY   58  39  49 SE16G24   29.97S
FLAGSTAFF      PTSUNNY   51  32  48 S12       30.04S
PAYSON         PTSUNNY   55  28  35 S9        30.03S
$$

AZZ009>014-017-221700-
NORTHEAST ARIZONA

CITY           SKY/WX    TMP DP  RH WIND       PRES   REMARKS
WINSLOW        MOSUNNY   59  25  27 S6        29.99F
SAINT JOHNS    PTSUNNY   63  20  19 SE12G18   30.01F
WINDOW ROCK    PTSUNNY   56  26  31 S8        30.07F
SHOW LOW       PTSUNNY   55  18  22 S20G28    30.05F
$$

AZZ023-221700-
GREATER PHOENIX AREA

CITY           SKY/WX    TMP DP  RH WIND       PRES   REMARKS
PHOENIX        MOSUNNY   70  41  34 S7        29.89R
BUCKEYE        SUNNY     70  41  35 S12       29.92R
GLENDALE       MOSUNNY   72  39  30 SW10      29.92R
LUKE AFB       SUNNY     73  41  32 S15       29.89R
DEER VALLEY    MOSUNNY   70  39  32 S7        29.90S
SCOTTSDALE     MOSUNNY   69  38  32 SE7       29.92R
MESA-FALCON    PTSUNNY   70  36  28 S12       29.91R
MESA-GATEWAY   PTSUNNY   66  39  37 SE7       29.93R
CHANDLER       PTSUNNY   50  39  66 S9        29.91R
$$

AZZ027-028-221700-
SOUTHWEST MARICOPA COUNTY AND PINAL COUNTY

CITY           SKY/WX    TMP DP  RH WIND       PRES   REMARKS
CASA GRANDE    PTSUNNY   72  36  26 S6        29.90F
GILA BEND      FAIR      67  39  35 W14       29.92S
$$

AZZ503-504-507>509-221700-
SOUTHEAST ARIZONA

CITY           SKY/WX    TMP DP  RH WIND       PRES   REMARKS
TUCSON         SUNNY     72  22  15 S12       29.98S
DAVIS-MONTHAN  SUNNY     71  24  17 SE1       29.96S
RYAN FIELD       N/A     73  28  19 S6        29.96S
NOGALES        SUNNY     68  24  19 S14       30.02S
SIERRA VISTA   SUNNY     67  11  11 SE7       30.04R
DOUGLAS        SUNNY     69  21  16 S15G23    30.03S
SAFFORD        SUNNY     71  26  18 SE12      29.95F
$$

AZZ020-021-025-026-031-221700-
SOUTHWEST ARIZONA

CITY           SKY/WX    TMP DP  RH WIND       PRES   REMARKS
YUMA           SUNNY     71  41  33 W16G28    29.93S
$$

CAZ031-033-041-043-047-048-061-221700-
SOUTHERN CALIFORNIA

CITY           SKY/WX    TMP DP  RH WIND       PRES   REMARKS
DOWNTOWN L.A.  CLOUDY    60  51  72 VRB5      30.01R
L.A. AIRPORT   PTSUNNY   60  50  69 W13       30.03R
SAN DIEGO      PTSUNNY   64  49  57 W10       30.06R
BURBANK        CLOUDY    58  50  75 SE3       30.01R
ONTARIO        CLOUDY    57  47  69 SW9       30.01S
RIVERSIDE      CLOUDY    59  47  64 W7        30.02R
PALM SPRINGS   MOSUNNY   69  40  34 NW12      29.91R
EL CENTRO NAS  MOSUNNY   70  41  34 W20       29.95R
IMPERIAL       SUNNY     69  42  37 W18G26    29.92S
BLYTHE         SUNNY     71  44  37 SW14G20   29.88S
NEEDLES        PTSUNNY   70  39  32 S10       29.86R
$$

NVZ020-UTZ003-221700-
SOUTHERN NEVADA-UTAH

CITY           SKY/WX    TMP DP  RH WIND       PRES   REMARKS
LAS VEGAS      PTSUNNY   65  40  39 S10       29.83R
SALT LAKE CITY CLOUDY    57  43  59 SE7       29.91S
$$

NMZ009-TXZ055-221700-
NEW MEXICO-WEST TEXAS

CITY           SKY/WX    TMP DP  RH WIND       PRES   REMARKS
ALBUQUERQUE    PTSUNNY   57  45  64 SW5       30.12R
EL PASO        MOSUNNY   65  54  67 CALM      30.07F
$$


........................KEY........................
SKY/WX - SKY CONDITION/WEATHER
TMP    - TEMPERATURE IN FAHRENHEIT
DP     - DEW POINT IN FAHRENHEIT
RH     - RELATIVE HUMIDITY IN PERCENT
WIND   - DIRECTION AND SPEED IN MILES PER HOUR (MPH)
VRB    - VARIABLE WIND DIRECTION
PRES   - MEAN SEA LEVEL PRESSURE IN INCHES OF MERCURY
         F - FALLING PRESSURE   R - RISING PRESSURE
         S - STEADY PRESSURE
VSB    - VISIBILITY IN MILES
HX     - HEAT INDEX IN FAHRENHEIT
WCI    - WIND CHILL INDEX IN FAHRENHEIT
TC     - TEMPERATURE IN CELSIUS WHICH IS ALSO KNOWN AS
         TEMPERATURE IN CENTIGRADE
AFB    - AIR FORCE BASE
         LUKE AFB IS LUKE AIR FORCE BASE
         DAVIS-MONTHAN IS DAVIS-MONTHAN AIR FORCE BASE
NAS    - NAVAL AIR STATION
         EL CENTRO NAS IS EL CENTRO NAVAL AIR STATION
N/A    - NOT AVAILABLE



USA.gov is the U.S. government's official web portal to all federal, state and local government web resources and services.